Regional Weather Roundup
Issued by NWS

Home | Current Version | Previous Version | Text Only | Print | Product List | Glossary On
Versions: 1 2 3 4 5 6 7 8 9 10 11 12 13 14 15 16 17 18 19 20 21 22 23 24 25 26 27 28 29 30 31 32 33 34 35 36 37 38 39 40 41 42 43 44 45 46 47 48 49 50
000
ASUS43 KTOP 290508
RWRKS

WEATHER ROUNDUP FOR KANSAS
NATIONAL WEATHER SERVICE GOODLAND KS
1200 AM CDT FRI JUL 29 2016

NOTE:  "FAIR" INDICATES FEW OR NO CLOUDS BELOW 12,000 FEET WITH NO
SIGNIFICANT WEATHER AND/OR OBSTRUCTIONS TO VISIBILITY.

KSZ001>006-013>018-027>032-041>047-290600-
NORTHWEST KANSAS

CITY           SKY/WX    TMP DP  RH WIND       PRES   REMARKS
GOODLAND       CLOUDY    65  60  84 NE6       30.15S
HAYS           CLOUDY    70  59  68 NW6       30.10R
HILL CITY      CLOUDY    69  66  90 NE7       30.09F
RUSSELL        MOCLDY    69  66  90 S6        30.05F
$$

KSZ061>065-074>080-084>089-290600-
SOUTHWEST KANSAS

CITY           SKY/WX    TMP DP  RH WIND       PRES   REMARKS
DODGE CITY     CLEAR     69  66  90 E7        30.07S
ELKHART          N/A     73  59  61 N6          N/A
GARDEN CITY    CLOUDY    68  63  84 E16       30.07F
GREAT BEND     CLEAR     70  61  73 CALM      30.05F
LIBERAL        PTCLDY    77  59  53 E8        30.05S
PRATT          CLOUDY    68  62  81 E7        30.04S
$$

KSZ066>073-081>083-090>101-290600-
SOUTHEAST KANSAS

CITY           SKY/WX    TMP DP  RH WIND       PRES   REMARKS
CHANUTE        CLOUDY    75  65  70 N7G16     29.98F
COFFEYVILLE    PTCLDY    76  66  71 SW10      29.98F
HUTCHINSON     CLOUDY    68  66  93 NW3       30.03R
MEDICINE LODGE   N/A     71  63  75 E6        30.00
NEWTON         CLOUDY    69  68  96 NW3       30.02S
PARSONS        MOCLDY    77  67  71 SW3       29.98F
WICHITA INTL   CLOUDY    70  67  90 SW3       30.00S
WICHITA JABRA  PTCLDY    69  68  96 NE5       30.01S
WICHITA MCCONL PTCLDY    73  67  82 VRB3      30.00F
WINFIELD       CLOUDY    71  68  90 N3        30.01R
$$

KSZ007>012-019>026-033>040-048>060-102>105-290600-
NORTHEAST KANSAS

CITY           SKY/WX    TMP DP  RH WIND       PRES   REMARKS
CONCORDIA      PTCLDY    68  66  93 CALM      30.03F
EMPORIA        CLOUDY    69  66  90 CALM      29.98F
LAWRENCE       LGT RAIN  69  68  96 E5        29.98F
MANHATTAN      CLOUDY    70  67  90 NW3       30.02R
MARYSVILLE     CLOUDY    70  66  88 CALM      30.03R
OLATHE IND     LGT RAIN  70  68  93 SE5       29.99F
OLATHE EXE     LGT RAIN  70  67  90 VRB5      30.00S
SALINA         MOCLDY    70  67  90 NW6       30.04R
TOPEKA BILLARD CLOUDY    69  67  93 W6        30.00R
TOPEKA FORBES  CLOUDY    71  68  90 N10       30.00F
$$




USA.gov is the U.S. government's official web portal to all federal, state and local government web resources and services.